SL-12 DEB, 41806

Orbit data source: Space-Track

SL-12 DEB, 41806 is space debris in HEO originally from a launch on Mon, 25 Dec 2006 UTC launched from the Tyuratam Missile And Space Complex (TTMTR). Debris objects in space refer to the collection of defunct objects orbiting the Earth. Examples of debris include non-operational satellites, rocket bodies, and fragments generated from explosions, collisions, or faulty payload assembly.

Loading next visibility...
Identifier
41806, 2006-062L
Orbit
HEO
Country
Flag of CISCIS
Related business
Manufacturer
RKKE
Mission
Spacecraft
Bus & Motor
Unknown
Mass
Unknown
Launch date (UTC)
2006-12-25 (19 years ago)
Launch vehicle
Unknown
Launch site
Tyuratam Missile And Space Complex (TTMTR)
Object type
Payload
Rocket body
Debris
Shape & HBR
Unknown shape, 0.2 m
Radar Cross Section
Medium (>0.1 m² and <1 m²)

Expand to show TLE details & history
Last TLE update: 2 days ago

TLE from 2 days ago
0 SL-12 DEB
1 41806U 06062L   25348.54587176  .00000079  00000-0  80228-3 0  9997
2 41806  64.3616  95.7699 5669014 321.1078   9.3863  4.14245180141447
Epoch: 2025-12-14T13:06Z
TLE epoch observation values (Epoch: 2025-12-14T13:06:03.320Z)
Latitude
-0.00012°
Longitude
175.78934°
Altitude
1,336.041 km
Speed
8.89 km/s
True Right ascension
06h 23m 02s
True Declination
0° 00' 00"
Sunlit
Object was in full shadow at epoch
Visualization orbit readout
Latitude
Unknown
Longitude
Unknown
Altitude
Unknown
Speed
Unknown
Apparent Right ascension
Unknown
Apparent Declination
Unknown
Sunlit
N/A
Visualization observer readout
Local Sidereal Time
23:58:29
Azimuth
Unknown
Elevation
Unknown
Doppler factor
Unknown
Orbital elements
Apogee altitude
19,281.126 km
Perigee altitude
714.199 km
Semi-major axis
16,375.799 km
Eccentricity
0.5669
Inclination
64.3616°
RAAN
95.7699°
Arg. of periapsis
321.1078°
True anomaly
38.93638°
Mean anomaly
9.3863°
Eccentric anomaly
21.05622°
Mean motion
1.03571 °/min
Orbital period
347.59 mins
BSTAR
0.00080228
Loading maneuver chart data...
Computing Atmospheric mass density...
Loading historical data...
Loading historical data...
Loading historical data...
Loading historical data...
Loading historical data...
Loading historical data...
Loading historical data...

Documentation

Showing up to 5 results
|